Location: Asheville, NC
(35.6000°N, 82.5500°W)
Time: 12:19:32
(UTC-04:00)

CUTE-I - Pass Details

Date: 06 January 2018
Orbit: 811 x 825 km, 98.7° (Epoch: 23 June)

Event Time Altitude Azimuth Distance (km) Brightness Sun altitude
Rises 05:33:48 0° 36° (NE) 3,334 ? -25.1°
Reaches altitude 10° 05:37:21 10° 61° (ENE) 2,397 ? -24.4°
Maximum altitude 05:40:06 14° 92° (E) 2,110 ? -23.8°
Drops below altitude 10° 05:42:51 10° 124° (SE) 2,391 ? -23.3°
Sets 05:46:21 0° 148° (SSE) 3,318 ? -22.6°
